TimeMST,TemperatureF,Dew PointF,Humidity,Sea Level PressureIn,VisibilityMPH,Wind Direction,Wind SpeedMPH,Gust SpeedMPH,PrecipitationIn,Events,Conditions,WindDirDegrees,DateUTC
12:45 AM,80.6,66.2,61,29.82,10.0,East,8.1,-,N/A,,Clear,100,2012-10-03 07:45:00
4:02 AM,73.4,60.8,65,29.84,10.0,NNW,3.5,-,N/A,,Clear,330,2012-10-03 11:02:00
4:40 AM,73.4,60.8,65,29.85,10.0,Calm,Calm,-,N/A,,Clear,0,2012-10-03 11:40:00
5:42 AM,71.6,60.8,69,29.86,10.0,Calm,Calm,-,N/A,,Clear,0,2012-10-03 12:42:00
6:48 AM,68.0,60.8,78,29.88,10.0,Calm,Calm,-,N/A,,Clear,0,2012-10-03 13:48:00
7:43 AM,77.0,60.8,57,29.90,10.0,ESE,4.6,-,N/A,,Clear,110,2012-10-03 14:43:00
7:50 AM,77,65,59,29.92,12,ESE,8.9,,,,,110,2012-10-03 14:50:00
8:43 AM,86.0,59.0,40,29.91,10.0,SE,5.8,-,N/A,,Clear,140,2012-10-03 15:43:00
9:42 AM,91.4,57.2,31,29.92,10.0,East,3.5,-,N/A,,Clear,100,2012-10-03 16:42:00
10:43 AM,93.2,51.8,24,29.92,10.0,South,9.2,-,N/A,,Clear,170,2012-10-03 17:43:00
10:50 AM,97,64,25,29.94,12,South,8.9,,,,,180,2012-10-03 17:50:00
11:43 AM,96.8,53.6,23,29.91,10.0,SSW,3.5,-,N/A,,Clear,200,2012-10-03 18:43:00
12:40 PM,100.4,51.8,20,29.88,10.0,WSW,4.6,-,N/A,,Clear,250,2012-10-03 19:40:00
1:42 PM,98.6,53.6,22,29.86,10.0,SW,8.1,-,N/A,,Clear,230,2012-10-03 20:42:00
1:50 PM,102,57,15,29.89,12,SW,15.7,,,,,220,2012-10-03 20:50:00
2:41 PM,100.4,50.0,18,29.86,10.0,SSW,4.6,-,N/A,,Clear,200,2012-10-03 21:41:00
3:41 PM,100.4,53.6,21,29.85,10.0,West,5.8,-,N/A,,Clear,280,2012-10-03 22:41:00
4:43 PM,96.8,59.0,28,29.85,10.0,SW,6.9,-,N/A,,Clear,220,2012-10-03 23:43:00
4:50 PM,98,68,28,29.88,12,SSW,13.4,,,,,200,2012-10-03 23:50:00
5:46 PM,93.2,66.2,41,29.86,10.0,WSW,4.6,-,N/A,,Clear,240,2012-10-04 00:46:00
6:43 PM,86.0,69.8,58,29.87,10.0,SW,6.9,-,N/A,,Scattered Clouds,220,2012-10-04 01:43:00
7:44 PM,82.4,71.6,70,29.89,10.0,WSW,3.5,-,N/A,,Partly Cloudy,240,2012-10-04 02:44:00